Wind_Speed
9 8 8 8 7 7 7 7 8 8 8 8 8 8 8 8 9 9 9 9 8 8 8 7 7 7 8 9 10 11 13 14 13 9 4 2 6 5 5 7 8 9 8 8 9 10 9 7 7 7 7 5 4 5 5 6 3 2 2 3 4 5 4 5 4 3 4 4 6 7 5 7 6 5 3 2 10 14 13 15 13 14 13 12 12 11 11 11
9 9 9 8 8 8 8 8 8 8 9 9 9 9 9 9 9 9 9 9 9 8 7 6 6 7 8 9 10 12 13 14 13 6 3 4 5 5 6 7 7 8 7 7 9 10 9 6 5 5 5 4 4 5 4 5 4 3 3 3 5 5 4 3 4 5 6 5 5 7 8 10 9 6 2 3 11 12 10 9 11 14 12 11 11 9 11 11
9 9 9 9 9 8 9 9 9 9 9 10 10 10 10 10 10 9 10 9 9 8 7 7 6 7 8 10 11 13 13 12 9 1 6 4 5 6 6 7 6 7 6 6 9 10 10 10 11 6 5 4 4 5 4 4 4 4 3 4 5 4 4 3 5 5 6 7 6 7 11 12 11 9 4 5 13 14 12 9 10 12 10 8 8 8 11 12
9 9 9 9 9 9 9 9 10 10 10 10 10 11 10 10 10 10 10 10 9 9 8 8 8 9 10 11 13 13 9 8 3 4 4 4 6 7 7 7 7 7 6 6 9 10 10 10 10 8 5 4 4 5 5 4 3 3 4 5 6 3 4 5 7 6 6 6 5 5 11 11 10 11 10 6 9 10 10 9 8 8 7 6 6 10 16 19
9 9 9 9 9 10 10 10 11 11 11 11 12 12 11 10 10 10 10 10 10 10 9 9 10 10 11 12 13 11 6 3 2 4 4 6 7 8 8 8 7 6 6 6 9 9 9 9 7 6 4 4 5 4 5 5 4 3 4 7 8 6 5 4 7 7 5 2 3 1 8 9 8 12 14 12 10 6 6 9 10 9 8 6 9 15 19 21
9 9 10 10 10 11 11 11 11 12 12 12 13 13 12 11 9 9 9 10 10 10 10 10 10 11 11 12 12 8 4 1 3 3 5 6 8 9 9 8 7 5 5 6 8 8 7 6 6 4 4 4 6 6 5 7 7 4 5 6 8 9 6 4 7 5 4 3 3 4 8 9 11 13 13 15 13 7 8 11 14 15 17 19 20 20 19 21
10 10 10 10 11 11 12 12 12 13 13 13 13 13 13 12 10 9 9 9 9 10 10 10 10 10 11 11 10 6 4 3 4 4 5 6 9 11 11 8 5 4 4 7 7 6 5 5 6 5 5 5 6 7 6 7 7 4 4 7 8 6 3 6 6 4 6 7 8 10 10 10 13 12 10 14 13 9 11 13 16 19 24 27 24 22 21 22
10 11 11 11 12 12 12 13 13 13 13 14 14 14 14 12 11 10 9 9 9 9 10 10 9 9 9 9 6 4 2 3 4 5 6 8 10 12 12 8 6 5 5 7 6 6 5 6 7 4 5 4 5 5 3 4 3 3 5 7 8 5 1 6 6 4 7 9 10 14 15 14 15 14 12 13 12 10 12 14 17 19 21 22 20 19 20 21
11 11 12 12 12 12 13 13 13 14 14 14 15 15 14 12 11 10 10 10 10 9 9 8 7 7 7 6 4 3 1 3 4 6 8 10 11 12 11 7 6 7 7 6 4 6 4 4 5 4 4 5 6 5 3 3 2 2 5 5 7 4 2 5 4 5 7 6 10 15 14 13 13 12 12 11 11 12 13 14 15 16 17 17 15 17 19 20
12 12 13 13 13 13 13 13 14 14 14 15 15 15 15 13 11 10 10 10 10 10 9 7 6 5 5 5 4 2 3 4 4 7 10 12 11 10 7 5 6 7 8 6 5 6 5 5 6 5 5 4 5 4 2 2 1 3 5 5 7 4 3 3 2 5 6 5 10 15 12 10 7 7 7 8 10 12 13 15 14 15 15 15 14 15 18 20
13 14 14 14 14 13 14 14 14 15 15 16 16 16 15 12 11 10 9 10 9 8 7 6 5 4 5 6 4 2 4 4 5 7 10 11 10 9 6 4 5 6 7 7 5 3 5 8 7 4 1 2 5 2 1 1 3 4 4 5 7 5 2 4 4 5 6 5 11 16 13 10 9 8 8 8 10 12 14 15 14 14 13 14 15 14 17 19
14 15 15 15 15 14 14 14 15 15 15 16 16 15 14 11 11 10 8 7 6 5 4 4 4 2 5 4 2 3 4 5 6 9 10 11 11 9 7 4 3 5 6 8 5 3 4 7 6 4 1 2 4 2 0 2 4 4 3 4 7 8 7 7 6 7 6 6 12 13 9 9 9 9 10 10 10 12 14 14 13 13 12 13 13 13 16 19
15 15 16 15 15 15 15 15 15 15 15 15 15 14 12 11 10 7 6 4 2 1 0 2 3 2 3 1 2 2 7 7 6 9 11 13 12 9 6 5 3 4 5 7 6 3 3 5 5 5 2 2 3 1 1 2 2 3 4 4 5 7 6 6 5 7 5 7 12 8 3 5 8 8 9 9 10 12 13 12 12 11 10 11 12 12 14 18
15 16 17 16 16 15 15 14 14 14 15 14 13 12 11 9 7 6 5 4 4 3 3 2 3 1 3 2 2 3 10 8 6 10 12 15 15 8 4 4 4 4 4 6 5 3 3 5 6 5 1 2 2 2 3 3 3 3 5 4 3 4 1 3 3 6 5 5 9 4 1 3 7 7 7 9 10 12 12 12 11 10 10 9 10 11 12 16
16 17 17 17 16 15 15 14 14 15 14 13 12 10 7 6 6 6 5 6 5 5 4 3 2 1 1 3 2 3 9 8 8 12 12 13 15 10 6 7 7 5 3 4 4 3 4 5 6 3 0 1 1 2 4 4 4 4 4 3 3 4 2 3 1 4 3 3 6 3 3 4 7 7 7 8 9 12 12 11 11 11 11 10 9 10 10 13
17 18 18 17 16 15 15 14 15 15 14 13 11 8 6 7 8 7 6 5 5 6 4 2 1 2 0 3 1 3 8 8 9 12 9 9 11 9 10 11 8 5 3 3 3 3 5 5 2 1 0 1 2 3 3 4 3 3 3 3 3 3 3 4 1 2 2 5 6 3 3 5 6 7 7 9 10 12 11 11 12 11 11 10 8 9 8 10
18 18 18 17 16 15 14 14 15 14 13 12 10 6 7 8 9 9 7 4 5 6 5 5 3 2 2 3 1 5 9 8 9 11 10 10 10 8 9 9 5 3 2 2 4 4 4 3 0 0 1 2 3 2 2 3 3 2 1 2 5 4 2 2 2 2 2 5 3 3 7 7 7 7 7 9 10 11 11 11 11 10 9 9 9 8 9 9
18 18 18 17 15 14 14 14 14 12 12 11 7 5 7 10 13 12 10 5 1 4 5 7 5 0 3 5 5 8 11 7 7 11 14 13 9 7 8 7 5 4 4 3 4 4 2 2 1 1 1 1 3 3 2 3 4 5 5 4 4 6 7 2 4 1 0 6 7 8 10 9 9 8 7 8 10 10 10 10 10 10 10 9 9 9 9 9
18 18 18 17 15 14 13 13 11 10 11 10 6 4 7 9 11 11 14 11 3 1 3 5 5 1 1 6 8 11 9 7 6 12 18 18 12 10 8 7 5 5 4 2 2 2 0 1 1 2 3 4 5 5 4 6 7 7 6 5 5 5 5 2 5 2 2 6 7 8 9 9 9 8 7 8 8 9 9 9 8 8 9 8 8 8 9 9
17 18 17 16 14 13 13 11 8 8 9 8 4 1 3 2 2 5 11 12 6 3 3 4 5 4 2 5 10 13 7 6 5 15 22 24 16 9 5 5 6 3 2 2 0 1 2 2 3 4 5 6 7 7 6 7 8 7 6 5 6 5 2 5 5 3 4 4 5 8 10 9 8 8 7 7 7 8 8 8 8 8 8 8 8 9 9 8
16 17 16 16 14 14 12 8 7 7 7 7 3 2 0 2 1 2 3 6 5 4 5 3 4 6 3 5 9 11 5 4 4 15 24 25 13 4 2 3 2 1 2 3 1 1 2 3 5 6 7 8 7 6 6 7 7 7 5 4 6 4 2 5 4 2 2 3 5 8 9 8 8 7 6 6 6 6 7 8 9 9 8 8 8 9 8 7
16 16 16 15 13 13 10 6 7 5 5 6 3 2 3 3 2 1 1 4 4 3 3 4 4 6 4 3 8 10 4 4 7 14 24 24 11 3 5 6 3 2 4 4 2 1 3 5 7 8 7 7 7 4 6 8 8 6 5 5 3 2 2 4 4 2 2 3 5 7 7 7 7 7 6 6 6 6 7 8 8 8 8 7 7 8 7 7
16 15 15 14 12 12 8 5 7 7 7 6 4 5 4 3 3 1 1 3 3 2 2 5 7 9 6 5 11 12 6 8 9 12 21 20 8 4 5 5 5 3 6 7 5 3 3 5 9 8 6 6 6 8 10 9 7 3 3 3 3 5 3 1 2 1 3 2 5 7 6 5 6 7 7 8 8 8 9 9 9 8 8 8 7 7 7 7
16 15 15 13 12 12 5 4 7 8 9 9 8 6 3 2 3 2 1 2 3 1 2 3 4 7 6 3 8 9 6 7 8 10 17 15 7 5 3 3 4 4 6 6 5 8 6 6 8 7 6 6 5 10 10 7 5 5 7 5 5 7 6 2 2 1 2 3 6 8 4 3 5 6 6 6 6 7 8 8 9 8 7 8 8 8 7 7
16 14 13 11 11 11 3 4 6 6 6 7 7 4 2 2 3 3 1 1 3 2 1 1 1 5 5 4 7 4 2 5 7 10 13 12 7 4 2 1 2 5 6 7 5 7 7 8 8 8 6 8 7 7 8 6 5 3 5 4 5 6 7 1 4 2 0 1 5 7 2 1 4 5 6 5 5 7 6 6 7 6 7 6 6 7 6 6
15 13 12 11 11 11 2 3 5 4 4 5 4 2 1 2 3 3 1 2 2 1 1 2 2 6 7 9 9 0 3 3 6 12 14 11 5 1 2 3 1 5 4 4 4 3 6 9 9 10 9 10 8 5 7 6 4 3 1 3 5 6 7 3 3 3 2 1 5 7 3 1 3 4 6 6 5 7 6 6 6 5 5 5 5 5 5 5
13 11 12 11 12 10 2 1 6 4 2 2 2 1 1 2 2 2 1 2 2 1 3 5 3 6 8 10 10 2 2 4 5 12 15 12 6 3 2 5 1 4 3 0 2 2 5 8 10 11 9 8 6 4 6 6 3 2 2 4 6 7 6 5 3 4 3 1 3 6 4 0 2 3 5 6 6 6 6 6 6 5 5 6 5 5 5 5
11 11 12 11 11 11 6 2 4 3 1 1 1 1 1 1 1 1 1 1 2 2 2 3 2 5 6 7 11 6 1 5 3 8 13 16 12 2 2 7 4 4 5 1 3 2 4 6 8 9 8 6 4 4 6 4 2 3 5 6 7 7 6 5 4 3 4 2 1 3 4 1 2 3 4 5 5 5 6 5 6 6 6 6 5 5 5 5
10 12 14 12 9 10 7 4 4 2 1 1 1 0 1 1 1 1 0 1 2 1 0 2 3 5 6 3 8 7 3 5 3 4 8 15 18 7 2 5 5 4 6 5 6 2 1 3 4 6 6 5 5 7 3 1 3 5 8 9 8 7 6 4 3 4 4 2 3 3 1 1 1 3 3 4 3 3 6 6 5 6 6 5 5 4 5 5
9 13 16 14 10 9 4 3 5 2 1 1 1 1 1 0 1 1 1 0 2 1 0 3 2 4 6 4 5 7 6 6 5 4 4 8 15 12 3 1 5 2 3 8 7 3 2 1 2 4 3 4 8 8 2 4 5 6 7 8 7 4 4 3 3 4 2 1 3 5 2 1 1 2 1 1 2 2 5 6 4 5 5 5 5 4 4 3
7 12 18 18 12 8 2 1 3 2 1 1 2 3 1 1 1 1 2 1 1 3 1 3 4 3 6 6 4 6 6 6 6 5 6 6 9 13 7 3 6 2 4 5 4 3 2 1 0 0 2 6 9 6 2 3 5 4 4 5 5 2 2 1 2 2 1 1 3 3 2 3 1 2 3 4 7 7 3 4 5 5 4 4 4 3 2 2
5 11 19 21 15 11 4 1 3 2 0 0 2 2 2 1 3 3 2 1 0 3 1 1 4 5 4 4 4 6 4 4 7 6 7 7 7 9 10 7 6 3 2 3 1 2 2 3 2 1 2 9 9 5 3 2 3 4 4 5 5 3 3 2 2 1 2 2 4 2 3 4 1 3 3 5 7 8 6 3 5 6 4 3 2 1 0 1
4 10 17 19 18 16 9 2 2 0 1 1 2 2 1 3 3 2 2 2 0 1 1 1 4 6 4 3 4 5 2 2 7 8 7 7 7 7 9 9 9 4 2 4 3 1 0 2 5 3 2 7 7 5 4 3 5 6 5 5 4 3 3 3 3 3 3 3 4 2 3 1 1 2 3 4 5 5 6 5 5 4 4 3 2 1 2 2
3 10 16 17 19 19 12 4 2 1 2 1 2 0 5 5 2 1 2 4 2 1 2 1 3 4 3 4 3 3 1 2 5 7 7 6 6 6 6 10 13 7 2 3 2 2 1 1 5 6 3 5 6 4 1 3 4 5 4 5 4 3 2 2 2 3 4 5 7 3 2 0 0 1 3 3 2 3 3 3 4 3 3 2 2 2 2 2
3 9 13 15 18 20 15 8 4 1 3 1 0 4 6 4 1 1 2 2 2 3 3 1 2 2 2 3 3 3 2 1 3 5 7 7 6 6 5 6 10 8 3 2 2 2 2 2 1 2 3 4 5 4 5 2 2 3 3 4 3 2 1 2 3 4 5 6 5 2 2 1 1 2 3 3 2 3 2 3 3 3 3 2 3 3 2 2
3 6 10 14 19 21 16 9 5 1 2 1 5 6 4 2 2 2 2 1 2 3 5 3 2 2 2 2 3 5 2 1 1 2 3 4 5 7 6 4 7 8 4 3 3 2 2 0 2 2 2 3 2 3 6 5 2 3 3 4 5 3 2 1 4 5 4 5 3 1 2 1 1 2 4 4 4 4 4 4 4 3 4 4 4 5 4 3
2 2 7 17 22 20 14 10 7 3 0 4 8 5 2 2 2 2 2 3 2 1 3 2 2 3 3 3 3 7 6 3 4 3 2 2 2 5 6 3 5 7 4 2 1 1 1 2 1 2 1 1 0 1 3 7 5 2 2 4 7 2 2 0 3 3 4 4 2 2 2 1 1 1 3 5 6 6 6 6 5 5 5 5 5 6 4 3
1 2 3 17 22 17 14 13 10 4 3 8 9 5 3 2 2 3 3 3 2 1 2 2 2 2 3 3 2 5 7 5 5 4 3 2 2 3 4 3 4 7 6 3 1 1 2 2 2 2 3 4 2 1 1 6 8 5 3 4 3 1 1 2 2 2 3 4 3 4 5 1 1 1 2 5 7 7 6 6 5 5 6 5 5 5 3 2
1 3 2 16 19 14 16 15 9 4 5 7 5 4 3 2 2 2 2 2 2 1 2 2 2 2 4 3 1 2 5 5 5 4 2 2 2 3 4 3 4 7 8 4 2 3 2 1 2 3 3 4 2 3 2 3 6 5 5 5 2 0 2 1 0 1 2 3 4 4 4 2 0 1 1 2 4 6 6 5 6 6 7 6 4 4 2 1
2 2 2 16 16 10 14 15 10 6 6 6 3 3 3 2 2 2 0 1 1 1 2 3 3 2 2 1 1 2 3 4 5 3 3 3 2 2 4 4 4 7 8 5 2 3 3 1 2 3 1 3 2 3 2 2 4 4 4 5 4 2 2 1 1 0 0 2 3 4 4 1 2 0 0 1 2 3 3 3 3 3 3 3 4 3 3 2
2 1 3 15 14 7 9 11 9 6 5 5 4 3 2 0 2 2 1 1 1 1 2 3 4 3 2 1 2 3 3 4 4 3 2 3 3 2 2 2 4 6 6 3 1 2 3 2 2 4 2 2 2 1 2 3 4 4 3 3 4 3 2 1 1 1 2 1 2 3 5 2 2 1 0 1 1 2 2 2 0 1 2 3 4 3 3 2
3 2 5 15 12 8 10 8 4 4 4 3 3 3 1 0 1 2 1 1 1 1 1 3 4 4 3 2 2 3 3 2 3 3 3 3 3 3 2 2 4 3 2 3 2 2 2 2 3 3 2 3 4 1 2 5 6 5 4 2 3 3 2 1 2 2 2 4 4 2 3 3 2 2 1 1 2 3 3 2 3 3 3 3 3 3 2 2
3 2 6 16 11 4 9 8 3 5 5 1 1 2 2 1 1 1 2 3 2 2 2 2 1 2 3 2 2 3 3 2 3 3 2 2 2 1 1 4 5 2 1 2 3 1 1 1 3 1 1 3 3 1 2 3 4 3 4 3 2 2 1 2 2 2 1 3 3 2 3 3 2 3 2 3 3 3 4 5 5 4 3 3 3 4 3 3
3 3 5 16 13 4 4 5 4 4 4 3 3 3 2 3 4 3 3 4 3 2 2 2 1 2 2 2 1 2 1 1 3 2 1 2 1 1 0 3 4 3 2 1 2 2 1 1 3 2 1 1 0 2 2 1 1 1 3 3 3 2 2 2 1 0 2 0 5 3 5 2 2 4 3 4 4 4 5 5 3 2 2 3 4 4 2 5
2 3 3 14 19 12 5 4 5 6 5 4 5 3 3 3 3 2 2 3 3 2 2 1 1 2 1 1 2 4 3 3 2 1 1 2 2 2 1 1 2 3 3 2 1 2 1 1 2 2 2 3 2 2 2 2 2 1 3 3 3 3 3 2 1 1 3 2 6 3 5 5 2 2 3 4 5 4 3 1 4 4 3 3 5 5 2 4
1 3 2 6 11 9 5 4 5 6 5 4 4 4 3 3 1 1 1 2 2 3 3 1 1 2 1 1 2 4 4 5 3 2 1 1 0 1 2 2 1 1 2 1 2 1 2 2 2 1 3 3 4 2 0 0 3 3 1 3 2 1 1 1 2 2 3 4 4 4 5 9 9 6 4 2 3 2 2 3 4 3 3 5 6 5 4 3
2 2 1 1 3 4 4 4 3 3 2 1 2 2 2 3 2 0 1 2 2 2 2 2 2 2 2 1 1 2 2 3 4 4 1 1 2 1 2 2 0 2 3 2 2 1 2 2 1 1 4 5 6 4 1 1 3 4 2 1 1 1 1 2 2 3 3 3 4 5 8 10 10 10 7 2 2 2 3 3 4 5 5 5 6 5 5 4
2 2 0 1 1 2 2 2 2 4 5 4 2 1 2 4 2 2 2 1 0 1 1 2 4 5 3 2 1 1 2 2 2 2 0 1 2 3 2 1 1 3 4 0 1 3 1 2 1 1 5 7 7 5 1 1 4 3 3 3 3 3 3 3 4 4 2 3 6 10 11 11 11 8 4 3 2 3 4 4 5 6 7 6 5 5 5 5
3 3 1 1 1 3 1 1 1 6 6 4 3 2 3 4 3 1 2 1 0 2 4 2 4 6 5 3 2 1 2 1 0 0 1 0 2 3 1 0 2 1 2 2 2 2 1 1 1 2 5 8 6 4 2 2 4 3 4 5 4 4 5 6 6 6 5 7 10 11 13 12 9 4 2 2 1 3 4 5 5 7 9 6 5 5 5 4
2 3 2 3 4 3 1 1 1 5 5 3 2 2 2 4 3 2 2 3 1 3 4 3 4 4 5 5 4 4 3 3 2 1 1 1 1 2 1 1 2 4 4 3 2 0 1 1 1 2 4 5 3 4 4 4 4 4 5 6 5 5 6 6 6 6 6 8 10 9 12 11 4 2 1 2 3 4 5 7 7 7 8 7 6 6 5 3
5 4 4 5 4 2 1 1 1 3 4 4 2 1 2 4 4 2 2 3 3 3 4 4 4 3 4 7 6 5 4 5 4 3 1 1 1 1 1 1 1 4 4 2 1 2 2 2 1 1 3 3 3 3 5 4 2 4 6 7 8 7 6 5 5 5 5 7 9 8 8 7 2 3 2 2 3 6 8 8 8 7 7 7 7 7 4 2
6 4 2 4 3 2 2 1 2 3 2 2 2 2 2 4 4 3 1 2 4 5 4 4 5 3 3 5 5 3 4 4 3 3 2 0 1 2 2 1 0 1 2 1 1 0 2 2 2 2 2 3 2 4 2 3 1 5 5 6 8 8 5 5 5 6 6 6 7 6 6 6 4 3 4 5 6 7 8 8 7 7 7 7 7 5 2 2
Wind_Direction
48 45 39 36 32 29 22 12 4 356 350 345 341 336 329 324 319 317 316 315 316 320 323 325 326 329 332 326 323 315 310 315 306 280 248 15 15 357 331 313 310 312 313 320 315 307 289 255 234 223 229 222 210 245 204 187 214 181 222 239 243 246 245 265 292 348 36 62 85 79 36 52 67 68 97 157 92 92 92 81 68 64 64 72 79 90 100 105
45 41 35 29 23 19 14 6 357 348 343 338 333 331 326 322 319 316 314 312 311 311 313 314 317 329 339 340 339 325 319 312 288 277 60 43 3 338 319 317 314 320 325 322 321 322 310 293 277 222 222 233 192 217 203 183 197 197 229 233 239 251 262 295 8 21 32 12 34 69 67 61 39 16 17 106 80 71 71 54 37 46 48 68 82 98 110 110
41 36 30 24 18 13 9 1 354 347 340 333 327 320 314 311 309 308 308 307 304 303 302 297 300 312 326 335 336 331 326 305 280 350 59 25 350 338 329 328 326 330 332 319 315 316 309 304 303 277 232 240 207 198 195 171 180 207 231 241 246 259 299 342 33 25 40 13 359 67 76 64 39 12 356 87 77 54 44 21 14 29 25 51 78 96 96 83
39 33 29 25 20 16 11 6 1 355 348 342 335 325 314 304 299 296 297 298 297 297 293 286 287 295 311 322 327 333 322 293 294 70 38 11 358 348 346 336 332 332 330 317 302 297 294 294 292 277 255 255 238 210 207 194 174 197 213 242 260 287 335 17 45 28 49 31 354 94 98 78 56 36 19 61 84 53 39 23 11 19 26 63 87 71 63 58
37 33 29 25 20 16 11 7 0 355 352 348 344 340 329 315 304 298 293 290 290 290 288 285 284 289 303 312 318 328 312 280 81 73 20 18 6 355 351 340 331 327 331 312 292 287 284 280 275 268 263 262 259 240 218 213 208 231 241 254 274 287 304 47 65 32 38 40 337 69 96 86 72 48 35 52 75 57 37 29 25 25 32 65 80 66 56 53
30 26 22 18 15 11 6 1 356 352 348 345 344 342 338 329 316 307 302 294 288 286 285 285 287 293 301 307 314 313 281 3 71 54 25 17 4 1 352 343 329 319 328 305 285 279 275 265 254 249 244 247 261 258 236 225 219 236 261 262 271 273 283 57 76 34 13 17 15 66 88 92 88 68 52 62 72 72 58 47 42 36 35 45 55 58 53 51
20 17 14 10 8 4 360 355 351 348 345 343 340 338 336 331 321 312 309 303 294 286 282 283 288 296 300 307 311 275 235 64 43 13 21 6 358 359 351 351 340 332 318 299 290 282 284 270 252 249 248 240 249 254 262 253 220 208 264 276 284 287 315 64 75 44 48 57 63 78 79 79 87 82 68 70 73 74 68 60 56 49 46 48 51 53 52 53
11 10 6 2 0 356 353 349 345 343 341 340 337 336 333 327 320 310 306 305 299 289 282 283 285 293 302 310 308 262 231 60 28 356 1 353 353 351 351 0 351 342 305 290 303 303 306 284 261 258 263 260 269 273 324 309 242 219 259 268 278 285 54 84 84 76 82 86 80 76 74 76 87 87 74 75 77 74 73 66 61 57 54 53 53 53 51 51
4 3 358 356 352 348 346 343 341 339 337 337 336 335 331 326 319 308 304 301 296 292 285 284 286 291 296 297 294 281 60 48 0 354 350 346 347 345 352 359 337 321 298 290 297 290 292 294 288 315 317 299 297 312 353 313 282 290 282 276 277 273 111 96 99 111 105 105 95 87 91 98 103 94 74 76 84 80 77 72 66 63 60 58 57 55 54 52
359 356 352 350 345 342 341 338 338 336 335 335 334 333 329 326 319 310 306 299 293 289 284 288 287 279 274 268 275 292 66 42 354 354 346 344 344 343 343 339 332 313 300 302 289 288 301 323 325 340 343 318 306 311 294 280 341 330 321 324 307 315 91 119 150 143 128 130 114 101 99 93 86 89 85 87 91 87 82 76 72 69 67 64 63 58 56 55
356 353 350 346 341 338 336 336 336 334 334 334 332 331 328 326 320 314 307 297 292 285 282 287 274 258 263 268 288 350 51 14 354 355 345 344 338 334 327 317 338 322 310 302 287 318 326 328 331 323 336 329 322 297 207 341 330 310 328 323 288 280 217 184 189 164 150 135 117 108 97 71 54 74 100 103 95 92 87 82 79 76 74 69 67 62 57 56
355 352 348 344 339 336 335 335 334 334 334 332 331 330 329 329 322 317 313 306 302 290 281 275 249 229 272 285 359 37 32 0 0 360 350 348 330 317 323 337 345 321 312 302 312 31 335 323 315 282 261 326 318 294 136 353 308 291 301 288 269 258 232 206 188 176 179 144 124 117 94 59 58 87 105 107 102 97 91 87 84 80 79 74 71 67 62 60
354 350 347 342 339 337 336 334 332 334 333 333 334 334 335 332 328 332 336 344 5 1 291 232 174 167 284 339 77 33 27 19 12 1 352 356 341 311 312 336 337 314 297 287 313 14 324 313 286 274 323 313 304 317 293 278 267 264 248 244 260 267 234 188 170 172 183 149 143 144 106 71 80 101 111 112 110 102 94 90 88 84 81 78 75 73 69 65
351 349 346 342 340 337 335 333 332 335 335 336 340 342 343 342 354 16 26 54 67 71 86 118 125 203 281 72 95 33 31 26 17 2 349 357 355 329 296 316 318 311 288 266 286 311 286 288 275 275 351 290 312 339 284 243 221 246 252 234 225 264 228 121 135 166 174 152 157 155 98 118 101 105 113 110 108 102 97 93 91 89 85 82 78 77 73 68
347 347 346 342 340 336 335 334 333 336 338 342 350 356 4 21 39 40 54 75 79 81 81 88 97 273 233 102 96 39 28 18 7 355 340 350 353 335 316 319 310 296 281 261 262 270 260 259 263 271 128 211 277 284 275 247 212 205 235 244 217 228 162 107 101 184 177 161 178 149 80 119 110 108 107 103 104 100 98 97 95 93 91 88 83 80 76 71
345 345 345 343 340 336 336 335 336 339 341 348 359 14 42 58 56 51 63 78 83 84 71 54 33 284 335 77 77 33 20 14 360 347 337 342 338 322 316 311 294 270 252 253 253 243 247 254 260 300 335 222 233 237 267 273 243 194 196 244 262 235 169 132 69 15 102 144 192 206 104 120 113 111 110 108 108 102 100 98 95 93 90 89 85 80 77 72
343 342 343 343 341 338 338 337 337 340 343 352 7 41 70 71 62 51 43 58 91 92 73 35 355 301 56 44 4 3 1 1 356 351 348 340 325 313 312 304 295 280 246 228 247 238 230 239 185 270 248 235 260 272 293 310 319 338 318 290 302 308 322 135 108 36 85 130 139 80 91 108 115 114 112 110 109 105 104 100 96 94 90 86 83 79 74 69
342 341 342 344 344 341 342 340 339 342 345 353 13 69 95 81 67 51 27 22 112 115 80 28 358 41 67 30 5 352 349 334 336 353 352 347 333 307 300 297 308 293 253 218 222 222 209 216 214 275 320 319 338 355 340 337 340 334 336 322 318 326 324 357 98 50 75 97 90 90 96 110 117 112 107 107 108 105 102 102 100 97 94 90 85 80 75 71
341 342 343 345 345 343 345 343 342 345 345 352 20 87 123 100 80 61 35 32 41 99 72 3 353 101 64 27 4 343 337 301 322 3 355 351 338 303 284 267 278 284 269 250 201 206 242 318 315 340 4 3 2 9 343 331 331 322 319 312 306 304 309 64 88 12 51 91 93 104 110 120 120 113 110 105 102 103 104 104 102 97 93 89 85 83 79 76
342 343 344 345 345 343 345 348 349 349 347 357 19 90 154 138 109 74 36 37 53 66 76 13 17 63 38 2 352 346 335 268 332 15 359 347 331 299 282 246 240 252 286 320 294 10 3 22 38 17 358 350 353 358 340 328 324 314 306 300 296 286 312 90 95 0 17 69 78 98 110 119 118 114 114 112 111 112 109 105 99 96 93 90 89 88 84 82
346 344 344 345 342 342 346 357 1 356 4 16 3 271 355 3 345 127 51 50 58 40 66 42 28 73 46 339 348 350 335 251 347 12 360 350 334 289 331 307 244 166 6 332 274 74 34 42 36 4 351 347 340 338 335 330 315 307 301 287 292 293 21 75 81 6 7 71 92 107 111 110 113 115 117 120 121 112 106 105 101 100 97 96 95 94 93 90
349 345 345 344 340 343 351 13 17 19 34 21 359 5 57 56 43 135 181 96 71 359 46 49 34 61 49 3 358 342 336 359 3 7 358 353 356 3 340 342 12 45 25 358 318 87 74 53 17 350 348 340 324 333 351 338 313 295 289 271 291 7 81 72 55 20 24 83 126 127 111 111 114 110 102 91 87 84 91 98 102 105 102 101 100 96 95 90
350 347 347 345 343 346 356 43 38 49 59 42 48 54 72 83 63 86 249 111 93 335 28 47 39 36 24 32 4 353 32 30 357 1 356 353 3 352 333 359 7 17 33 13 5 48 66 27 356 341 328 315 337 25 20 351 327 336 351 315 352 20 12 25 34 4 8 49 142 132 107 115 115 100 87 75 73 72 73 78 78 83 87 87 87 83 85 83
349 350 350 348 350 350 2 73 48 59 68 64 69 67 94 87 50 51 303 130 105 66 58 37 41 35 20 25 351 349 61 44 1 360 356 355 350 317 333 15 355 22 28 0 41 75 55 10 344 322 308 319 17 42 26 355 336 31 46 22 2 354 342 9 113 122 50 64 130 128 113 138 135 119 101 88 92 89 81 83 79 79 85 84 82 77 75 77
350 352 354 356 358 357 20 95 48 68 77 60 58 50 84 52 16 25 331 157 94 77 121 43 33 28 358 332 336 331 92 38 18 8 358 0 352 309 334 346 346 29 10 352 58 82 36 9 347 333 354 19 35 45 28 359 318 12 55 19 340 326 323 22 131 147 222 209 159 155 165 156 141 128 121 119 115 110 103 103 103 105 108 99 97 93 87 87
354 357 2 5 5 2 44 112 36 67 92 57 32 345 33 13 7 30 299 190 74 4 349 3 344 8 354 335 340 114 131 17 10 12 7 6 2 219 346 334 2 27 11 8 58 88 13 6 2 5 24 30 27 33 27 10 328 330 356 322 320 309 304 279 170 189 270 270 174 189 226 121 145 126 126 136 124 118 118 114 114 110 104 92 87 89 85 87
0 7 8 9 12 15 53 66 17 41 93 51 16 348 25 3 24 36 255 164 76 317 346 3 338 357 359 351 359 91 134 315 328 7 9 6 352 213 5 3 1 19 13 95 63 51 2 8 14 18 25 28 21 10 11 11 345 314 306 312 309 294 287 282 243 222 258 14 144 201 237 300 132 117 124 136 130 133 134 121 115 100 94 93 84 82 78 75
12 15 14 14 20 30 50 38 19 49 36 327 333 9 12 1 21 355 253 143 27 307 336 3 353 350 338 356 24 69 118 312 321 356 3 13 8 257 75 23 353 351 348 4 96 60 359 23 25 21 22 23 7 334 350 7 319 301 325 317 295 278 269 283 280 252 270 300 273 216 223 270 88 120 152 152 147 161 154 135 125 114 105 102 96 97 94 85
29 28 24 20 22 31 44 57 55 85 10 319 227 60 33 25 340 276 241 193 307 334 45 354 356 336 322 0 38 52 49 14 16 340 354 19 14 0 94 30 346 340 0 37 96 121 19 37 28 33 28 3 325 310 324 337 275 303 321 300 272 261 249 257 266 269 291 300 328 351 127 213 81 144 183 169 179 201 163 146 135 128 122 114 107 100 95 92
44 40 28 21 23 21 28 72 54 55 1 343 162 115 109 45 263 235 61 347 317 8 318 353 350 308 334 33 38 19 36 40 15 353 20 30 17 13 68 92 347 1 74 59 78 112 137 211 1 42 29 324 309 302 220 207 271 304 316 298 282 264 205 207 227 239 312 37 310 336 32 339 279 149 109 85 348 350 139 144 135 129 125 111 94 76 65 61
55 40 24 19 23 17 18 127 15 9 14 355 141 111 140 215 333 60 84 124 7 10 320 354 8 337 2 43 37 357 21 38 8 11 31 29 22 22 32 27 353 19 113 70 74 119 113 125 15 41 344 345 328 324 129 206 273 303 315 319 327 343 133 204 238 198 347 306 242 277 333 323 296 118 54 31 17 23 82 147 144 132 111 94 81 67 55 21
61 34 20 18 22 20 17 252 311 330 48 74 154 161 217 110 38 37 50 178 305 10 2 356 355 342 359 56 45 357 355 17 8 22 33 23 30 35 39 31 355 358 62 28 54 142 97 67 66 207 358 11 353 345 21 323 314 339 338 357 360 1 31 355 345 358 305 255 217 248 343 343 51 97 61 44 35 32 36 69 117 120 109 113 111 72 4 297
67 30 18 15 19 19 9 302 294 218 148 122 177 239 265 68 52 37 4 357 144 328 272 209 315 327 351 45 24 356 346 8 6 20 33 32 39 45 50 36 10 1 350 347 354 10 59 59 29 13 353 9 10 16 14 339 342 351 358 15 11 11 12 341 338 337 299 271 273 323 13 15 117 104 85 69 56 55 52 58 86 111 130 156 164 183 271 263
83 30 18 11 12 12 7 355 352 122 135 164 221 314 60 68 78 140 32 28 50 307 284 193 291 314 40 60 19 0 35 52 33 35 32 35 40 28 28 21 12 8 317 327 7 352 338 56 18 7 330 344 13 33 356 259 291 326 4 28 30 43 16 313 321 323 301 294 301 341 50 190 176 121 115 99 89 89 85 91 103 124 149 165 196 224 263 265
104 30 22 13 5 3 2 357 351 95 138 206 270 57 62 76 80 55 39 17 355 330 326 330 274 255 107 80 35 30 56 84 79 70 45 42 45 21 5 3 6 7 346 352 10 337 6 97 75 15 3 359 17 13 345 322 270 305 3 39 27 13 311 268 284 289 289 297 303 24 77 39 47 153 151 140 166 148 143 163 157 178 188 196 229 240 246 257
105 30 24 15 5 1 1 359 1 71 190 238 70 63 53 76 33 14 28 319 320 335 319 316 338 3 65 81 24 12 13 306 355 72 80 74 62 30 7 355 10 16 19 15 2 342 1 75 160 115 29 10 23 355 358 20 348 295 6 6 301 277 184 238 285 289 305 305 294 95 108 109 92 202 180 180 204 194 196 199 190 203 216 228 248 252 235 211
91 22 24 12 6 4 6 4 1 356 299 65 77 72 41 71 10 350 16 330 315 318 301 323 29 352 9 64 18 349 340 336 343 356 67 81 45 18 356 351 19 21 25 28 33 72 352 295 241 129 126 143 14 328 43 51 25 320 30 345 304 289 128 232 297 303 322 309 285 9 14 172 173 232 196 206 221 214 208 203 199 215 227 229 237 253 250 179
78 222 34 9 3 8 11 4 353 340 71 71 79 79 42 55 17 2 10 329 284 225 316 31 60 340 6 42 32 342 340 350 352 357 48 39 7 17 355 342 3 5 7 3 313 358 357 304 262 220 162 145 98 53 61 46 34 32 39 359 334 32 15 325 337 309 315 312 297 341 0 355 153 113 190 207 215 216 211 191 190 225 244 241 237 249 257 177
315 218 40 359 358 12 16 14 13 25 76 73 79 86 61 67 53 23 5 323 269 254 357 26 34 45 39 17 322 353 3 16 2 357 43 16 1 47 27 352 329 340 347 342 323 325 314 205 263 260 166 142 98 47 5 0 21 33 30 8 355 270 274 287 281 262 288 306 302 324 342 340 111 84 160 186 195 201 205 192 193 217 234 246 260 266 277 273
308 200 37 354 352 6 16 32 48 45 64 68 67 78 74 105 94 51 45 317 295 336 33 15 3 43 66 43 350 4 25 42 23 19 35 4 1 66 38 15 324 324 331 320 313 333 307 248 300 306 129 119 63 34 35 4 2 20 36 13 353 335 311 268 221 185 4 305 298 313 312 261 147 225 44 114 165 179 190 200 210 231 247 280 313 323 333 323
315 145 10 351 353 2 15 42 52 38 66 71 68 74 43 86 89 50 96 208 306 39 59 35 27 31 43 61 40 1 19 48 33 35 46 20 19 28 36 31 331 323 327 312 280 12 342 311 298 302 315 71 91 59 39 58 44 41 52 15 349 350 350 325 294 49 47 294 260 297 301 261 164 196 211 109 129 131 102 99 126 312 311 310 314 315 317 314
3 108 350 350 4 40 51 59 31 24 73 63 55 80 19 279 83 11 356 335 335 27 65 47 33 27 31 33 24 17 31 42 18 29 70 63 37 21 13 356 326 301 306 328 352 57 10 296 284 296 342 58 93 73 18 95 102 90 78 40 359 16 32 329 283 333 353 294 285 318 310 278 205 185 202 120 101 114 119 146 199 228 246 264 288 317 329 29
35 99 3 356 355 36 65 74 44 36 74 116 85 67 15 37 73 16 12 11 358 356 38 55 26 23 37 4 346 28 34 25 14 30 96 100 65 61 16 346 335 299 260 336 346 19 46 298 295 290 74 83 98 338 341 119 129 103 78 53 40 61 70 228 253 338 337 290 320 338 305 289 230 210 201 131 127 150 177 202 219 229 257 297 336 341 352 68
60 100 25 15 24 54 70 82 107 82 89 126 110 78 52 53 44 35 31 24 21 8 30 66 29 18 28 344 19 58 30 20 30 22 54 67 88 170 99 7 358 354 19 43 345 343 22 350 319 310 314 345 322 320 324 235 277 41 87 72 69 59 341 275 238 330 219 352 17 329 278 289 179 192 188 152 161 190 208 228 258 306 334 352 348 328 6 79
95 94 30 26 41 59 67 79 117 119 113 114 101 88 96 84 40 2 16 31 26 2 33 93 318 336 329 292 79 65 23 18 35 343 1 53 138 171 156 81 350 1 56 106 264 313 328 331 353 353 321 324 315 296 289 273 305 335 120 101 73 38 357 313 276 255 232 345 2 294 266 315 335 195 203 190 192 216 234 306 9 10 357 338 318 316 36 83
59 59 34 24 38 48 58 63 91 116 122 115 94 67 62 92 113 305 356 31 9 5 44 86 265 277 286 284 107 78 33 31 56 78 42 7 227 156 151 159 267 10 95 151 224 239 297 303 31 29 250 268 291 294 34 24 290 291 52 84 78 49 11 299 260 261 274 313 304 255 295 320 317 315 309 217 182 240 316 18 7 330 306 307 311 328 26 37
51 61 24 58 56 51 59 49 50 93 96 70 94 74 58 97 131 154 26 34 6 354 32 65 36 1 330 338 79 94 69 58 64 68 68 280 297 271 169 152 339 165 158 195 196 149 301 265 83 343 250 248 275 287 26 71 270 288 324 36 190 208 297 299 263 260 297 312 278 287 320 312 302 314 331 17 58 349 349 347 313 299 309 321 333 353 3 345
43 111 309 315 78 58 51 15 22 71 67 57 85 106 88 90 75 40 41 31 347 323 323 83 49 17 13 11 350 61 90 77 59 49 260 257 306 290 196 166 241 176 157 109 64 95 334 271 154 306 274 267 265 254 238 257 261 283 298 269 245 215 211 233 249 261 268 245 266 294 308 299 297 314 353 59 33 336 314 297 292 307 318 332 357 354 339 328
64 100 58 344 72 84 73 305 49 84 74 66 69 39 64 83 71 47 21 329 184 10 358 59 45 5 10 3 321 39 60 16 44 265 283 29 309 305 7 74 281 280 79 20 17 117 155 274 185 195 285 287 259 211 188 246 253 257 255 252 251 236 219 217 234 252 253 250 267 289 297 294 297 320 36 68 293 280 287 286 294 315 322 337 357 336 322 325
103 118 110 91 84 79 59 286 106 95 70 44 54 25 36 68 75 91 32 3 31 15 4 58 66 19 27 30 30 69 48 13 46 93 172 134 293 299 37 50 315 331 354 24 1 269 117 357 182 171 294 293 212 177 202 222 242 259 249 240 239 248 248 232 231 247 256 262 271 283 291 291 274 179 199 237 262 286 296 297 306 320 324 333 336 317 312 331
86 105 125 116 90 22 332 336 75 91 61 35 45 33 43 62 62 72 59 33 39 27 11 26 21 12 57 55 56 66 33 18 43 49 82 113 347 333 41 19 335 317 325 28 5 331 19 333 268 72 326 285 173 205 221 195 237 281 262 244 230 230 242 232 226 238 250 274 288 287 285 285 244 197 231 257 305 313 305 303 311 316 318 324 318 304 305 349
89 88 101 111 94 9 336 4 26 54 69 33 26 32 61 75 57 37 68 90 66 49 28 360 342 336 76 64 52 44 4 4 30 14 351 333 37 82 89 38 14 323 328 350 263 61 61 324 307 33 327 281 301 300 255 117 1 286 257 241 226 220 237 245 240 249 260 287 297 282 271 280 298 327 323 315 318 314 307 311 319 316 313 310 301 297 338 35
Height
808 807 807 806 806 805 805 804 804 803 803 802 802 801 801 800 800 799 799 799 798 798 798 797 796 796 795 795 794 794 792 791 791 790 790 791 791 790 790 790 789 789 789 788 787 786 784 784 783 783 784 783 784 782 780 779 779 785 793 800 801 794 787 778 773 773 773 774 776 777 776 781 789 788 786 787 792 801 805 809 815 817 819 821 823 824 825 826
808 808 807 807 806 806 805 805 804 803 803 802 801 801 800 800 799 799 799 798 798 798 797 797 796 796 795 795 794 793 792 791 790 789 790 791 791 791 791 790 790 789 788 788 787 786 785 783 781 782 783 783 782 780 780 778 779 787 792 798 796 786 777 770 769 770 772 775 775 778 780 785 793 791 787 793 803 807 811 817 819 821 823 823 825 825 826 826
809 808 808 807 807 806 806 805 804 803 803 802 801 801 800 800 799 799 798 798 798 797 797 797 796 796 795 795 794 793 792 790 789 790 791 792 792 791 791 790 790 789 789 788 788 787 786 784 783 782 782 783 780 779 781 779 780 784 789 796 789 778 773 768 769 771 773 776 776 782 787 792 800 797 793 799 810 818 824 829 827 828 827 825 826 825 826 827
809 809 808 808 807 806 806 805 804 804 803 802 801 800 800 799 799 798 798 797 797 797 797 796 796 795 795 794 794 793 792 791 791 792 793 792 792 791 791 790 789 789 789 788 788 787 786 785 783 782 783 784 780 778 781 780 780 782 785 791 781 773 775 771 772 773 774 777 778 783 790 799 805 805 805 803 812 827 834 834 832 831 829 827 827 827 829 830
810 809 809 808 807 807 806 805 804 804 803 802 801 800 799 798 798 798 797 797 796 796 796 795 795 795 795 794 794 793 792 796 795 793 793 792 792 792 791 790 789 789 788 788 788 787 786 784 783 783 785 786 782 780 781 777 777 781 781 781 777 774 777 774 775 778 778 779 780 784 792 802 807 812 818 814 822 837 838 836 834 832 830 828 828 830 833 835
811 810 809 808 807 807 806 805 804 803 803 801 801 800 799 798 797 797 796 796 795 795 795 795 795 794 794 793 793 792 794 799 796 792 794 792 792 792 791 790 789 789 788 788 787 786 785 784 785 786 786 786 785 782 780 774 774 783 782 776 775 775 776 776 778 781 780 780 784 789 797 804 810 821 827 825 833 840 838 838 838 837 834 832 832 836 839 841
811 810 809 808 807 807 805 805 804 803 802 801 800 799 798 797 796 796 795 795 794 794 794 794 794 793 793 792 792 792 792 795 794 793 794 792 792 791 791 790 789 789 788 788 787 786 785 784 785 785 785 786 784 780 777 773 772 781 785 778 776 774 776 779 781 783 782 786 791 793 800 806 813 824 830 832 838 839 839 841 841 841 840 838 840 843 846 848
811 810 809 808 807 806 805 804 804 803 802 801 800 799 798 797 796 795 794 794 794 793 793 793 793 793 793 792 791 791 791 794 795 794 793 792 792 791 790 789 789 789 788 788 787 786 785 785 784 782 785 785 781 779 777 777 776 781 784 780 777 776 777 781 783 784 785 791 796 799 808 815 818 825 833 838 841 841 842 844 844 845 845 845 848 850 852 853
811 810 809 808 807 806 805 804 803 802 801 800 799 798 797 796 795 794 793 793 792 792 792 792 793 792 792 792 791 792 793 795 795 794 793 793 792 791 790 789 789 789 788 787 786 787 786 785 784 782 786 784 780 780 780 784 786 783 781 780 778 777 779 782 784 785 788 793 797 804 815 821 820 824 837 842 842 844 845 847 849 849 850 852 854 856 857 858
811 810 809 808 806 805 804 803 802 801 800 799 798 797 796 795 794 793 792 792 791 791 791 791 792 792 792 791 792 795 796 795 795 795 793 792 792 791 790 790 790 789 788 787 786 786 785 785 784 782 785 784 783 783 781 785 788 783 781 781 781 780 780 783 785 786 789 793 796 806 816 821 818 823 840 846 843 846 848 850 852 853 855 858 859 860 861 861
811 810 809 807 806 805 804 802 801 800 799 798 797 796 795 794 793 792 792 791 791 791 791 791 791 791 792 791 792 796 796 795 795 795 794 793 792 791 791 790 789 789 788 787 786 785 785 786 784 784 787 787 785 784 783 784 785 782 783 786 784 782 782 783 786 787 789 794 797 805 816 823 823 830 843 846 845 848 850 853 855 857 860 861 862 864 864 865
811 809 808 807 805 804 803 802 800 799 799 797 796 795 794 793 792 791 791 790 790 790 790 791 791 792 792 792 794 797 796 795 795 794 794 793 791 791 790 790 789 789 789 787 786 786 787 786 785 787 787 787 787 786 786 784 784 783 785 791 788 783 783 783 785 787 788 794 798 801 814 829 834 839 844 844 847 850 851 856 858 860 862 864 865 866 868 870
811 809 808 806 805 803 802 801 800 799 798 797 796 794 793 792 791 791 790 790 790 790 790 790 791 792 792 794 796 797 796 795 795 795 794 792 791 790 789 789 789 789 789 788 787 786 787 787 786 787 785 787 789 788 788 785 785 787 786 790 791 788 785 782 783 787 789 793 796 797 813 838 845 842 844 845 848 850 854 858 860 863 865 867 868 869 872 873
810 809 807 806 804 803 802 801 800 799 797 796 795 793 792 791 791 791 790 790 790 790 790 790 791 792 793 796 797 797 796 796 795 795 793 792 790 789 789 789 788 788 788 788 787 787 787 786 786 785 785 787 788 787 788 786 786 789 789 789 792 796 793 787 785 790 794 794 794 796 812 840 847 843 844 845 848 852 856 860 862 865 867 869 871 872 874 875
810 808 807 805 804 802 801 800 799 798 797 796 794 793 792 791 791 791 790 791 790 791 791 791 792 792 793 797 797 797 796 796 796 795 794 792 791 790 789 789 788 788 788 787 787 787 787 786 786 787 786 786 787 791 792 788 786 788 794 795 792 796 798 795 790 790 795 797 795 798 817 841 847 845 846 846 850 853 857 862 864 867 868 871 873 874 877 878
809 808 806 805 803 802 800 799 798 797 796 795 794 793 792 792 792 791 792 791 791 792 791 792 792 792 795 798 797 796 797 797 796 796 794 793 792 791 790 789 787 787 787 787 787 786 786 785 786 787 787 788 789 792 793 791 787 784 792 797 790 790 797 800 796 792 794 799 798 800 822 844 847 846 848 848 852 855 859 864 865 868 870 872 875 876 878 880
809 807 806 804 802 801 800 799 798 796 795 795 794 793 793 793 793 792 792 792 792 792 792 793 792 792 796 798 798 798 798 798 797 796 794 793 792 791 790 788 786 786 786 787 787 786 786 785 788 789 788 790 788 788 796 800 799 793 792 794 790 788 793 800 803 798 794 799 805 809 827 845 847 848 849 849 854 857 861 866 868 871 873 875 877 879 881 882
809 807 805 804 802 801 800 798 797 796 795 794 794 794 794 794 793 793 793 793 793 792 793 794 793 798 803 801 800 801 799 799 798 796 795 793 792 790 790 789 787 786 786 787 787 786 786 785 786 789 791 793 791 795 805 808 807 804 801 800 798 795 793 798 806 803 798 806 816 824 837 847 848 849 851 852 855 859 863 867 870 872 875 878 879 881 884 885
808 806 805 803 802 801 799 798 797 796 795 794 794 795 794 795 794 794 795 794 795 798 802 801 799 805 810 804 802 802 800 799 798 796 795 793 791 790 789 789 788 787 787 789 788 786 787 788 791 798 803 803 800 803 807 806 803 803 803 802 803 802 797 801 808 804 801 811 819 826 839 848 850 852 853 855 857 861 865 868 871 874 876 879 881 884 886 887
807 806 804 802 801 800 799 798 797 796 795 795 795 795 795 795 795 798 799 798 802 806 808 807 804 805 807 804 803 802 800 799 798 797 795 792 790 789 787 787 787 788 790 792 792 788 789 797 807 811 811 807 804 804 804 803 801 801 801 802 802 801 800 805 811 808 805 814 824 829 839 847 850 854 856 857 860 862 866 869 873 876 879 882 884 886 887 888
807 805 803 802 801 800 799 798 797 796 796 795 795 795 797 797 798 802 804 806 807 807 806 807 805 806 807 806 805 804 803 800 798 798 797 793 789 789 789 786 787 791 792 791 792 791 794 807 815 813 809 807 804 804 803 803 803 803 803 804 803 801 806 810 812 812 808 817 831 834 840 849 852 855 857 858 861 863 867 871 875 878 880 883 885 886 888 889
807 805 803 802 800 799 799 798 797 797 796 796 795 796 797 799 801 801 803 807 810 807 806 807 806 807 807 807 806 805 805 804 801 800 799 794 790 792 793 789 790 793 792 791 793 795 804 815 816 811 809 807 804 803 804 805 804 804 803 803 804 805 812 815 815 814 809 817 832 835 842 851 853 855 858 860 863 866 869 872 875 879 881 883 885 887 888 890
807 804 803 801 799 799 798 798 798 797 797 797 796 797 799 800 801 800 801 805 811 810 807 808 808 808 808 808 807 805 806 809 808 804 802 799 797 797 798 797 796 795 796 800 801 804 814 819 815 811 810 807 806 806 809 811 807 807 809 808 809 810 812 816 819 818 814 817 826 834 845 854 856 859 864 867 869 871 873 876 878 880 882 884 886 887 889 891
806 803 802 800 799 799 798 798 798 797 798 798 798 799 800 801 800 802 801 801 809 811 809 810 809 810 811 810 809 808 809 811 811 809 806 805 803 799 800 802 801 801 804 805 804 811 820 819 814 811 809 806 808 813 818 819 813 813 818 818 817 816 812 814 818 819 819 821 824 833 847 856 860 865 871 873 874 877 879 880 883 884 886 887 888 890 891 892
805 803 802 800 799 798 797 798 798 798 800 799 800 801 801 802 800 802 801 801 810 813 810 811 810 812 813 810 810 809 810 812 812 812 808 807 807 805 803 801 803 808 811 807 806 816 821 816 813 811 808 807 811 818 823 824 819 816 820 821 819 817 814 814 817 819 822 825 826 829 836 850 862 866 873 877 876 879 881 882 885 886 887 888 889 892 892 893
804 803 802 800 799 798 797 799 798 799 800 800 802 801 801 802 800 802 802 805 816 818 814 812 813 815 814 811 809 807 813 816 813 812 810 809 810 809 808 804 804 809 813 811 812 820 824 819 816 814 813 814 817 821 823 826 825 819 818 820 818 817 815 813 816 820 819 819 823 824 823 840 863 869 871 875 876 879 881 882 884 885 886 889 890 892 893 894
804 803 802 800 799 798 797 799 799 800 800 802 803 801 802 802 800 803 803 810 823 822 817 816 815 818 817 814 809 810 821 821 814 813 811 811 810 808 812 813 809 810 810 812 819 827 828 825 823 820 819 821 825 826 824 828 830 821 816 818 818 817 815 812 813 817 815 814 822 828 822 827 854 872 871 872 876 879 881 882 884 886 887 890 891 893 894 895
804 803 802 801 800 799 799 799 800 800 801 802 801 801 802 801 801 803 806 822 830 822 821 821 818 818 818 816 813 816 824 821 819 819 813 811 811 808 813 817 816 814 810 812 827 834 830 830 830 827 826 827 829 828 825 829 831 820 815 818 818 816 815 812 813 814 812 814 820 826 826 826 850 875 872 870 876 877 880 881 883 887 889 891 893 894 895 896
804 803 802 801 801 800 800 800 800 801 802 801 801 802 801 800 803 802 807 827 832 824 825 824 820 822 819 818 819 820 822 822 824 823 815 814 814 811 815 819 817 817 813 812 825 833 831 832 831 829 832 832 830 826 825 829 827 818 816 819 816 815 816 814 816 816 811 818 823 821 823 829 853 876 869 867 874 872 874 880 882 885 888 890 892 893 895 896
805 804 803 802 800 800 800 800 800 801 801 800 801 801 801 802 804 806 819 832 831 828 828 825 826 828 824 823 826 824 824 825 825 821 818 819 819 815 815 818 816 817 820 822 827 831 832 832 830 832 835 834 829 823 822 826 825 821 820 816 809 809 814 814 814 813 814 827 831 822 819 823 845 871 872 871 876 871 872 879 882 885 887 890 892 893 895 896
805 804 803 802 801 801 800 800 801 801 800 801 801 800 802 803 803 814 832 835 831 832 832 830 832 831 828 831 834 831 828 828 825 824 824 824 825 824 823 827 826 820 821 828 832 833 832 832 832 834 835 832 827 821 821 824 824 825 821 814 811 808 812 815 810 811 823 832 829 822 818 817 838 869 879 880 882 878 876 878 881 887 889 892 894 895 896 896
805 804 803 802 802 801 800 801 800 800 800 800 800 801 802 806 815 830 836 832 834 841 840 838 837 833 831 833 837 838 834 832 829 827 831 832 834 836 839 847 848 837 829 829 832 833 834 835 835 834 833 831 831 828 827 825 822 824 819 818 824 824 826 831 822 819 826 823 818 820 819 825 854 880 885 886 888 887 884 881 883 888 892 894 895 895 895 895
806 805 804 803 802 801 800 800 799 800 800 799 801 800 801 815 835 842 837 834 841 845 842 842 840 835 833 834 839 841 838 838 835 832 835 837 840 844 846 852 854 850 843 834 833 835 835 835 834 835 835 834 835 840 842 837 831 829 824 826 836 841 850 853 838 832 833 823 817 817 821 842 872 886 888 890 891 891 890 888 888 890 893 894 894 895 895 895
806 805 805 803 802 801 800 799 799 799 799 800 800 799 807 828 844 844 841 842 844 843 841 843 842 838 837 839 842 842 840 841 840 839 841 841 847 852 852 853 854 855 852 843 841 842 838 839 841 841 842 839 838 843 846 843 841 835 827 830 838 845 857 860 846 843 846 835 820 817 829 853 873 883 889 892 891 891 891 891 891 892 892 893 893 894 894 894
806 806 805 804 802 802 800 800 799 798 800 799 800 807 822 838 843 843 848 850 847 844 843 842 842 839 838 840 842 842 844 843 839 844 851 852 858 862 860 861 859 859 860 851 848 846 839 841 845 844 843 842 842 843 839 839 841 834 827 835 844 845 850 852 844 841 842 836 829 838 857 873 883 888 890 890 891 892 891 891 892 892 892 893 893 893 892 892
806 806 806 805 804 802 800 800 799 799 800 797 807 827 843 850 850 849 854 855 851 852 850 843 842 841 838 841 845 844 845 844 838 843 853 859 865 868 866 865 862 864 867 861 856 855 849 844 843 844 845 843 845 846 840 841 843 836 837 848 849 842 845 850 846 836 835 839 839 846 865 882 889 888 888 889 890 891 891 891 892 892 892 892 891 891 889 889
806 806 807 806 804 803 802 800 799 800 798 799 818 841 849 855 859 857 858 857 854 857 852 844 847 849 843 844 851 850 846 844 840 842 850 856 863 871 872 868 864 865 869 868 863 860 860 852 841 841 845 843 845 846 840 842 844 843 850 853 845 839 841 847 849 846 847 849 840 833 846 868 876 878 888 892 887 887 888 888 890 890 890 890 889 888 885 886
806 807 807 806 806 805 802 801 800 799 799 810 833 848 850 855 860 859 861 861 858 857 851 844 850 853 847 848 856 854 849 848 845 845 851 857 865 874 876 873 868 866 867 870 866 859 861 858 844 837 841 842 844 846 844 844 844 845 852 851 849 854 852 848 853 859 861 859 849 838 840 855 865 872 884 886 880 882 882 882 888 889 887 887 884 883 883 883
807 807 809 809 808 806 804 802 801 799 804 822 841 849 852 859 862 861 864 864 860 856 850 847 849 850 851 856 858 855 851 852 852 850 854 861 868 874 878 876 873 870 869 870 867 861 858 858 848 837 836 839 841 849 855 856 850 848 853 854 855 859 858 855 855 858 862 864 862 855 847 854 866 869 871 872 871 874 875 877 883 884 883 882 880 880 881 882
806 807 812 812 808 808 807 803 803 807 818 835 846 850 854 859 861 862 863 863 860 855 852 851 850 851 855 859 858 855 853 854 856 856 860 867 871 876 880 880 878 876 874 870 869 865 856 854 852 841 834 839 850 858 862 863 860 858 863 869 868 863 859 858 854 852 860 867 870 870 861 858 868 869 866 868 868 869 872 875 877 877 878 879 878 880 881 881
806 810 814 812 810 809 806 807 814 822 833 843 849 853 857 858 859 860 860 861 859 855 855 855 854 855 857 857 857 856 854 857 860 861 865 870 873 877 881 883 883 881 877 869 867 869 864 860 860 850 840 845 860 866 862 861 864 864 869 875 876 874 872 868 861 858 865 867 866 871 868 860 865 869 866 867 868 869 873 875 876 877 877 878 878 879 880 881
808 815 818 813 812 810 808 820 833 835 842 852 855 856 859 858 858 859 859 860 858 855 855 857 858 860 861 859 858 858 859 864 866 864 868 874 876 879 881 882 883 883 881 872 867 872 874 869 863 857 855 860 865 865 862 863 865 866 871 875 875 878 881 878 872 870 874 867 858 866 868 862 867 869 866 868 870 871 875 876 877 877 876 876 877 877 878 880
814 819 819 814 813 810 813 833 846 846 852 860 859 859 859 858 858 859 860 861 859 856 857 860 862 862 863 863 860 860 864 869 870 869 869 873 878 881 881 881 881 880 880 876 871 874 874 868 862 858 862 869 869 865 864 865 866 867 873 877 879 883 885 885 883 883 883 873 867 877 875 864 866 869 866 869 872 872 874 875 874 873 873 874 875 876 877 879
817 819 818 816 814 811 819 836 848 853 857 858 858 861 861 861 863 863 864 864 862 861 860 862 864 862 863 863 861 864 867 868 871 873 871 871 877 881 879 882 882 879 879 881 880 880 872 864 863 861 860 864 867 867 866 866 866 868 875 882 882 884 887 886 887 887 883 874 876 887 879 862 863 869 868 870 872 872 873 872 871 871 871 873 874 875 876 878
817 819 821 821 817 817 826 837 843 851 856 855 857 859 859 864 867 866 866 866 865 864 863 865 866 864 863 862 862 865 868 868 870 875 874 872 876 880 879 881 882 880 883 885 885 886 875 863 864 869 868 868 868 869 869 869 867 867 875 883 883 884 888 885 884 884 879 874 878 884 875 860 860 866 867 869 871 871 871 871 871 872 872 873 873 873 874 876
818 823 827 828 826 827 834 839 841 847 852 852 855 857 858 864 868 866 866 867 866 864 863 865 866 865 863 862 863 867 869 870 871 874 878 877 875 877 879 879 880 881 884 885 886 886 877 866 869 873 872 871 869 867 869 871 871 868 872 881 883 884 887 887 886 882 877 880 883 876 868 865 863 862 863 866 869 870 870 871 872 872 872 872 872 873 874 875
822 831 835 834 835 837 840 843 844 846 848 850 856 860 860 862 865 864 865 866 866 866 865 866 867 867 866 864 864 866 869 872 873 876 883 884 879 877 877 878 879 880 883 884 883 884 876 869 875 877 872 871 868 865 867 872 873 871 873 880 883 883 886 887 885 879 877 886 885 868 865 871 868 862 863 867 870 871 872 873 872 871 871 870 871 873 874 875
827 836 839 838 841 845 846 848 848 848 849 851 856 860 860 863 866 866 867 866 866 866 865 866 869 870 871 870 868 867 869 872 875 880 884 885 882 878 876 878 878 878 881 881 880 884 880 872 878 880 872 871 869 865 867 871 872 872 875 879 880 881 886 888 885 880 880 887 882 869 868 873 867 863 867 871 873 873 873 872 871 870 869 869 871 873 874 875
831 837 840 840 844 850 852 851 849 850 851 852 857 861 861 865 870 873 873 870 866 866 865 869 874 873 871 871 869 870 874 876 876 881 884 884 884 881 878 879 878 876 879 880 882 887 882 873 877 881 876 871 867 864 868 872 872 873 876 878 877 878 881 884 884 881 880 880 875 870 871 869 865 866 870 871 871 872 871 870 869 869 869 869 871 872 873 875
829 833 838 841 846 851 852 851 849 850 852 853 860 864 864 866 871 875 878 876 871 869 869 872 877 875 873 873 873 877 884 883 880 883 886 886 885 884 882 883 883 880 878 880 884 885 880 875 876 880 877 867 861 864 870 872 873 874 874 874 875 878 878 878 879 879 879 878 873 872 874 870 866 868 868 869 869 869 869 869 868 868 869 869 871 872 872 874
827 830 833 837 847 852 851 850 848 849 855 860 864 866 867 870 873 875 880 882 880 879 879 878 878 876 875 879 882 886 889 888 886 886 887 887 886 885 885 885 886 885 881 883 886 884 883 880 875 878 877 865 859 865 868 870 875 876 876 874 873 875 875 873 873 874 875 876 873 875 876 869 863 864 865 865 867 868 868 867 866 867 868 869 870 870 871 873
828 831 830 833 845 854 852 850 849 851 863 872 871 870 870 873 876 876 878 881 882 883 885 884 881 878 877 882 888 892 891 890 889 888 886 886 885 885 887 886 886 887 885 886 888 887 890 888 878 879 878 866 858 858 861 871 878 872 870 870 867 868 869 869 870 869 868 871 874 875 871 863 859 861 863 864 866 868 868 867 866 867 867 868 869 869 871 873